period_start,C,m1,H,J0,J1,J2,J3,J4,J5,JA,JB,JC,JD,JJ,JK,JN,#
2018-09-29 00:03:04,0.00,0.00,0.00,25.10,29.70,31.60,-0.11,-3.08,1027.35,2016.02,3720.99,3038.94,3490.99,0.00,0.00,0.00,0000 0000 0000 A000 020008
2018-09-29 00:08:05,0.00,0.00,0.00,25.10,29.70,31.58,-0.11,-3.08,1027.27,2016.05,3720.99,3038.97,3490.99,0.00,0.00,0.00,0000 0000 0000 A000 020008
2018-09-29 00:13:06,0.00,0.00,0.00,25.11,29.70,31.60,-0.11,-3.08,1027.16,2016.05,3720.99,3038.96,3490.99,0.00,0.00,0.00,0000 0000 0000 A000 020008
2018-09-29 00:18:07,0.00,0.00,0.00,25.12,29.70,31.61,-0.12,-3.02,1027.08,2016.01,3720.99,3038.96,3490.99,0.00,0.00,0.00,0000 0000 0000 A000 020008
2018-09-29 00:23:08,0.00,0.00,0.00,25.12,29.70,31.60,-0.12,-3.08,1027.06,2016.06,3720.99,3038.98,3490.99,0.00,0.00,0.00,0000 0000 0000 A000 020008
2018-09-29 00:28:09,0.00,0.00,0.00,25.12,29.70,31.61,-0.11,-3.03,1027.04,2016.05,3720.99,3038.98,3490.99,0.00,0.00,0.00,0000 0000 0000 A000 020008
2018-09-29 00:33:11,0.00,0.00,0.00,25.14,29.70,31.62,-0.12,-3.02,1027.08,2016.05,3720.99,3038.99,3491.00,0.00,0.00,0.00,0000 0000 0000 A000 020008
2018-09-29 00:38:12,0.00,0.00,0.00,25.15,29.70,31.63,-0.12,-3.08,1027.15,2016.03,3720.99,3038.96,3491.00,0.00,0.00,0.00,0000 0000 0000 A000 020008
2018-09-29 00:43:13,0.00,0.00,0.00,25.15,29.70,31.62,-0.12,-3.12,1027.19,2016.04,3720.99,3038.98,3490.99,0.00,0.00,0.00,0000 0000 0000 A000 020008
2018-09-29 00:48:14,0.00,0.00,0.00,25.15,29.70,31.59,-0.11,-3.17,1027.26,2016.06,3720.99,3038.98,3490.99,0.00,0.00,0.00,0000 0000 0000 A000 020008
2018-09-29 00:53:15,0.00,0.00,0.00,25.15,29.70,31.68,-0.12,-3.08,1027.34,2016.02,3720.99,3038.96,3490.99,0.00,0.00,0.00,0000 0000 0000 A000 020008
2018-09-29 00:58:17,0.00,0.00,0.00,25.16,29.70,31.64,-0.11,-3.11,1027.34,2016.02,3720.98,3038.95,3490.99,0.00,0.00,0.00,0000 0000 0000 A000 020008
2018-09-29 01:03:18,0.00,0.00,0.00,25.17,29.69,31.59,-0.11,-3.06,1027.36,2016.05,3720.99,3038.98,3490.99,0.00,0.00,0.00,0000 0000 0000 A000 020008
2018-09-29 01:08:19,0.00,0.00,0.00,25.17,29.69,31.66,-0.10,-3.17,1027.35,2016.02,3720.99,3038.98,3490.99,0.00,0.00,0.00,0000 0000 0000 A000 020008
2018-09-29 01:13:21,0.00,0.00,0.00,25.17,29.70,31.66,-0.11,-3.19,1027.33,2016.05,3720.99,3038.98,3490.99,0.00,0.00,0.00,0000 0000 0000 A000 020008
2018-09-29 01:18:22,0.00,0.00,0.00,25.17,29.70,31.61,-0.11,-3.17,1027.19,2016.08,3720.99,3038.98,3491.00,0.00,0.00,0.00,0000 0000 0000 A000 020008
2018-09-29 01:23:23,0.00,0.00,0.00,25.17,29.70,31.63,-0.11,-3.17,1027.10,2016.04,3720.99,3038.98,3491.00,0.00,0.00,0.00,0000 0000 0000 A000 020008
2018-09-29 01:28:25,0.00,0.00,0.00,25.17,29.70,31.58,-0.11,-3.13,1027.01,2016.04,3720.99,3038.96,3491.00,0.00,0.00,0.00,0000 0000 0000 A000 020008
2018-09-29 01:33:26,0.00,0.00,0.00,25.18,29.70,31.59,-0.12,-3.18,1026.98,2016.03,3720.99,3038.98,3491.00,0.00,0.00,0.00,0000 0000 0000 A000 020008
2018-09-29 01:38:27,0.00,0.00,0.00,25.20,29.70,31.63,-0.12,-3.17,1026.98,2016.03,3720.99,3038.98,3491.00,0.00,0.00,0.00,0000 0000 0000 A000 020008
2018-09-29 01:43:29,0.00,0.00,0.00,25.20,29.70,31.61,-0.11,-3.23,1027.05,2016.04,3720.99,3038.98,3491.00,0.00,0.00,0.00,0000 0000 0000 A000 020008
2018-09-29 01:48:30,0.00,0.00,0.00,25.20,29.70,31.64,-0.12,-3.23,1027.16,2016.02,3720.99,3038.97,3491.00,0.00,0.00,0.00,0000 0000 0000 A000 020008
2018-09-29 01:53:31,0.00,0.00,0.00,25.21,29.70,31.73,-0.11,-3.24,1027.19,2016.03,3720.99,3038.96,3491.00,0.00,0.00,0.00,0000 0000 0000 A000 020008
2018-09-29 01:58:32,0.00,0.00,0.00,25.21,29.70,31.69,-0.12,-3.20,1027.20,2016.04,3720.99,3038.97,3491.00,0.00,0.00,0.00,0000 0000 0000 A000 020008
2018-09-29 02:03:33,0.00,0.00,0.00,25.22,29.70,31.70,-0.11,-3.25,1027.32,2016.05,3720.99,3038.97,3491.00,0.00,0.00,0.00,0000 0000 0000 A000 020008
2018-09-29 02:08:34,0.00,0.00,0.00,25.22,29.70,31.68,-0.12,-3.23,1027.35,2016.03,3720.99,3038.96,3491.00,0.00,0.00,0.00,0000 0000 0000 A000 020008
2018-09-29 02:13:35,0.00,0.00,0.00,25.22,29.70,31.66,-0.12,-3.25,1027.36,2016.04,3720.99,3038.92,3491.00,0.00,0.00,0.00,0000 0000 0000 A000 020008
2018-09-29 02:18:36,0.00,0.00,0.00,25.24,29.71,31.67,-0.12,-3.25,1027.36,2016.01,3720.98,3038.85,3490.99,0.00,0.00,0.00,0000 0000 0000 A000 020008
2018-09-29 02:23:37,0.00,0.00,0.00,25.25,29.72,31.69,-0.11,-3.24,1027.36,2016.01,3720.97,3038.84,3490.99,0.00,0.00,0.00,0000 0000 0000 A000 020008
2018-09-29 02:28:38,0.00,0.00,0.00,25.27,29.72,31.73,-0.11,-3.25,1027.36,2016.00,3720.97,3038.88,3490.99,0.00,0.00,0.00,0000 0000 0000 A000 020008
2018-09-29 02:33:39,0.00,0.00,0.00,25.27,29.72,31.76,-0.11,-3.25,1027.36,2016.00,3720.97,3038.83,3490.99,0.00,0.00,0.00,0000 0000 0000 A000 020008
2018-09-29 02:38:41,0.00,0.00,0.00,25.27,29.72,31.71,-0.12,-3.24,1027.36,2016.00,3720.96,3038.73,3490.98,0.00,0.00,0.00,0000 0000 0000 A000 020008
2018-09-29 02:43:42,0.00,0.00,0.00,25.29,29.72,31.72,-0.12,-3.25,1027.36,2016.00,3720.87,3038.44,3490.95,0.00,0.00,0.00,0000 0000 0000 A000 020008
2018-09-29 02:48:43,0.00,0.00,0.00,25.30,29.72,31.73,-0.11,-3.25,1027.35,2016.00,3720.76,3038.25,3490.90,0.00,0.00,0.00,0000 0000 0000 A000 020008
2018-09-29 02:53:44,0.00,0.00,0.00,25.30,29.74,31.75,-0.11,-3.25,1027.32,2016.00,3720.85,3038.47,3490.92,0.00,0.00,0.00,0000 0000 0000 A000 020008
2018-09-29 02:58:45,0.00,0.00,0.00,25.32,29.75,31.74,-0.12,-3.25,1027.09,2016.00,3720.68,3038.19,3490.85,0.00,0.00,0.00,0000 0000 0000 A000 020008
2018-09-29 03:03:47,0.00,0.00,0.00,25.32,29.75,31.73,-0.12,-3.25,1026.94,2016.00,3720.42,3038.11,3490.69,0.00,0.00,0.00,0000 0000 0000 A000 020008
2018-09-29 03:08:48,0.00,0.00,0.00,25.34,29.75,31.75,-0.13,-3.25,1027.01,2016.00,3720.20,3038.04,3490.41,0.00,0.00,0.00,0000 0000 0000 A000 020008
2018-09-29 03:13:49,0.00,0.00,0.00,25.35,29.75,31.72,-0.12,-3.23,1026.98,2016.00,3720.24,3038.04,3490.49,0.00,0.00,0.00,0000 0000 0000 A000 020008
2018-09-29 03:18:50,0.00,0.00,0.00,25.37,29.77,31.82,-0.12,-3.25,1027.19,2016.00,3720.42,3038.07,3490.57,0.00,0.00,0.00,0000 0000 0000 A000 020008
2018-09-29 03:23:51,0.00,0.00,0.00,25.37,29.77,31.82,-0.12,-3.26,1027.35,2016.00,3720.15,3038.03,3490.33,0.00,0.00,0.00,0000 0000 0000 A000 020008
2018-09-29 03:28:53,0.00,0.00,0.00,25.40,29.77,31.85,-0.13,-3.25,1027.36,2016.00,3720.14,3038.02,3490.31,0.00,0.00,0.00,0000 0000 0000 A000 020008
2018-09-29 03:33:54,0.00,0.00,0.00,25.41,29.77,31.85,-0.14,-3.25,1027.36,2016.00,3720.05,3038.01,3490.09,0.00,0.00,0.00,0000 0000 0000 A000 020008
2018-09-29 03:38:55,0.00,0.00,0.00,25.42,29.78,31.86,-0.13,-3.25,1027.36,2016.00,3720.01,3038.01,3490.03,0.00,0.00,0.00,0000 0000 0000 A000 020008
2018-09-29 03:43:56,0.00,0.00,0.00,25.44,29.80,31.86,-0.14,-3.25,1027.36,2016.00,3720.00,3038.00,3490.02,0.00,0.00,0.00,0000 0000 0000 A000 020008
2018-09-29 03:48:57,0.00,0.00,0.00,25.45,29.80,31.85,-0.13,-3.27,1027.36,2016.00,3720.01,3038.00,3490.01,0.00,0.00,0.00,0000 0000 0000 A000 020008
2018-09-29 03:53:58,0.00,0.00,0.00,25.47,29.80,31.89,-0.12,-3.25,1027.36,2016.00,3720.00,3038.00,3490.02,0.00,0.00,0.00,0000 0000 0000 A000 020008
2018-09-29 03:58:59,0.00,0.00,0.00,25.50,29.82,31.90,-0.13,-3.25,1027.36,2015.99,3720.00,3038.00,3490.00,0.00,0.00,0.00,0000 0000 0000 A000 020008
2018-09-29 04:04:00,0.00,0.00,0.00,25.50,29.82,31.86,-0.12,-3.27,1027.36,2015.99,3719.99,3037.99,3489.99,0.00,0.00,0.00,0000 0000 0000 A000 020008
2018-09-29 04:09:01,0.00,0.00,0.00,25.51,29.83,31.88,-0.14,-3.26,1027.36,2015.97,3719.98,3037.97,3489.99,0.00,0.00,0.00,0000 0000 0000 A000 020008
2018-09-29 04:14:03,0.00,0.00,0.00,25.53,29.85,31.93,-0.14,-3.26,1027.36,2015.98,3719.97,3037.87,3489.96,0.00,0.00,0.00,0000 0000 0000 A000 020008
2018-09-29 04:19:04,0.00,0.00,0.00,25.55,29.85,31.91,-0.13,-3.26,1027.36,2015.97,3719.95,3037.92,3489.96,0.00,0.00,0.00,0000 0000 0000 A000 020008
2018-09-29 04:24:05,0.00,0.00,0.00,25.55,29.87,31.96,-0.13,-3.27,1027.36,2015.96,3719.91,3037.81,3489.89,0.00,0.00,0.00,0000 0000 0000 A000 020008
2018-09-29 04:29:06,0.00,0.00,0.00,25.57,29.87,31.95,-0.11,-3.26,1027.36,2015.88,3719.72,3037.58,3489.70,0.00,0.00,0.00,0000 0000 0000 A000 020008
2018-09-29 04:34:08,0.00,0.00,0.00,25.58,29.88,31.97,-0.12,-3.32,1027.37,2015.85,3719.62,3037.40,3489.58,0.00,0.00,0.00,0000 0000 0000 A000 020008
2018-09-29 04:39:09,0.00,0.00,0.00,25.60,29.90,31.98,-0.13,-3.30,1027.37,2015.73,3719.36,3037.21,3489.42,0.00,0.00,0.00,0000 0000 0000 A000 020008
2018-09-29 04:44:10,0.00,0.00,0.00,25.61,29.90,31.98,-0.13,-3.33,1027.36,2015.43,3719.05,3037.04,3489.08,0.00,0.00,0.00,0000 0000 0000 A000 020008
2018-09-29 04:49:11,0.00,0.00,0.00,25.64,29.92,31.98,-0.13,-3.30,1027.37,2015.19,3719.01,3037.01,3489.01,0.00,0.00,0.00,0000 0000 0000 A000 020008
2018-09-29 04:54:12,0.00,0.00,0.00,25.65,29.92,32.00,-0.13,-3.38,1027.36,2015.14,3719.01,3037.01,3489.00,0.00,0.00,0.00,0000 0000 0000 A000 020008
2018-09-29 04:59:13,0.00,0.00,0.00,25.66,29.95,32.03,-0.13,-3.36,1027.36,2015.09,3719.00,3037.00,3489.00,0.00,0.00,0.00,0000 0000 0000 A000 020008
2018-09-29 05:04:14,0.00,0.00,0.00,25.67,29.95,32.03,-0.13,-3.35,1027.36,2015.06,3719.00,3037.00,3489.00,0.00,0.00,0.00,0000 0000 0000 A000 020008
2018-09-29 05:09:15,0.00,0.00,0.00,25.69,29.97,32.05,-0.13,-3.40,1027.36,2015.01,3718.99,3037.00,3489.00,0.00,0.00,0.00,0000 0000 0000 A000 020008
2018-09-29 05:14:17,0.00,0.00,0.00,25.70,29.97,32.07,-0.13,-3.39,1027.36,2015.00,3718.99,3036.98,3488.98,0.00,0.00,0.00,0000 0000 0000 A000 020008
2018-09-29 05:19:18,0.00,0.00,0.00,25.72,30.00,32.08,-0.13,-3.43,1027.36,2015.00,3718.94,3036.97,3488.95,0.00,0.00,0.00,0000 0000 0000 A000 020008
2018-09-29 05:24:19,0.00,0.00,0.00,25.75,30.00,32.11,-0.14,-3.42,1027.36,2015.00,3718.88,3036.93,3488.83,0.00,0.00,0.00,0000 0000 0000 A000 020008
2018-09-29 05:29:20,0.00,0.00,0.00,25.76,30.02,32.13,-0.13,-3.40,1027.37,2015.00,3718.43,3036.64,3488.35,0.00,0.00,0.00,0000 0000 0000 A000 020008
2018-09-29 05:34:21,0.00,0.00,0.00,25.77,30.02,32.18,-0.13,-3.41,1027.36,2014.98,3718.08,3036.23,3488.07,0.00,0.00,0.00,0000 0000 0000 A000 020008
2018-09-29 05:39:23,0.00,0.00,0.00,25.79,30.05,32.15,-0.14,-3.41,1027.36,2014.97,3718.00,3036.03,3488.00,0.00,0.00,0.00,0000 0000 0000 A000 020008
2018-09-29 05:44:24,0.00,0.00,0.00,25.81,30.05,32.20,-0.13,-3.46,1027.36,2014.95,3718.01,3036.01,3488.00,0.00,0.00,0.00,0000 0000 0000 A000 020008
2018-09-29 05:49:25,0.00,0.00,0.00,25.83,30.07,32.20,-0.13,-3.42,1027.36,2014.89,3718.00,3036.00,3488.00,0.00,0.00,0.00,0000 0000 0000 A000 020008
2018-09-29 05:54:26,0.00,0.00,0.00,25.85,30.08,32.22,-0.13,-3.47,1027.36,2014.72,3718.00,3036.00,3487.99,0.00,0.00,0.00,0000 0000 0000 A000 020008
2018-09-29 05:59:28,0.00,0.00,0.00,25.86,30.10,32.25,-0.13,-3.49,1027.36,2014.33,3717.97,3036.00,3487.97,0.00,0.00,0.00,0000 0000 0000 A000 020008
2018-09-29 06:04:28,0.00,0.00,0.00,25.87,30.11,32.28,-0.13,-3.50,1027.36,2014.13,3717.91,3035.98,3487.87,0.00,0.00,0.00,0000 0000 0000 A000 020008
2018-09-29 06:09:30,0.00,0.00,0.00,25.88,30.12,32.26,-0.14,-3.49,1027.36,2014.08,3717.50,3035.96,3487.38,0.00,0.00,0.00,0000 0000 0000 A000 020008
2018-09-29 06:14:31,0.00,0.00,0.00,25.90,30.14,32.29,-0.13,-3.48,1027.36,2014.03,3717.32,3035.92,3487.15,0.00,0.00,0.00,0000 0000 0000 A000 020008
2018-09-29 06:19:32,0.00,0.00,0.00,25.91,30.15,32.29,-0.14,-3.50,1027.37,2014.03,3717.20,3035.82,3487.10,0.00,0.00,0.00,0000 0000 0000 A000 020008
2018-09-29 06:24:33,0.00,0.00,0.00,25.92,30.17,32.28,-0.14,-3.50,1027.37,2014.01,3717.06,3035.39,3487.02,0.00,0.00,0.00,0000 0000 0000 A000 020008
2018-09-29 06:29:34,0.00,0.00,0.00,25.92,30.17,32.29,-0.14,-3.49,1027.37,2014.00,3717.03,3035.23,3487.01,0.00,0.00,0.00,0000 0000 0000 A000 020008
2018-09-29 06:34:36,0.00,0.00,0.00,25.94,30.20,32.31,-0.14,-3.49,1027.39,2014.00,3717.00,3035.06,3487.00,0.00,0.00,0.00,0000 0000 0000 A000 020008
2018-09-29 06:39:37,0.00,0.00,0.00,25.96,30.21,32.35,-0.14,-3.49,1027.41,2014.00,3717.00,3035.00,3486.97,0.00,0.00,0.00,0000 0000 0000 A000 020008
2018-09-29 06:44:38,0.00,0.00,0.00,25.97,30.22,32.33,-0.14,-3.50,1027.51,2013.99,3716.99,3035.00,3486.93,0.00,0.00,0.00,0000 0000 0000 A000 020008
2018-09-29 06:49:39,0.00,0.00,0.00,25.97,30.24,32.36,-0.14,-3.48,1027.69,2013.98,3716.96,3035.00,3486.69,0.00,0.00,0.00,0000 0000 0000 A000 020008
2018-09-29 06:54:41,0.00,0.00,0.00,26.00,30.25,32.36,-0.14,-3.50,1027.77,2013.98,3716.88,3034.99,3486.37,0.00,0.00,0.00,0000 0000 0000 A000 020008
2018-09-29 06:59:42,0.00,0.00,0.00,26.00,30.26,32.38,-0.13,-3.50,1027.82,2013.96,3716.68,3034.98,3486.09,0.00,0.00,0.00,0000 0000 0000 A000 020008
2018-09-29 07:04:43,0.00,0.00,0.00,26.02,30.27,32.37,-0.14,-3.50,1027.85,2013.97,3716.24,3034.91,3486.01,0.00,0.00,0.00,0000 0000 0000 A000 020008
2018-09-29 07:09:44,0.00,0.00,0.00,26.02,30.30,32.35,-0.12,-3.50,1027.85,2013.90,3716.08,3034.68,3486.00,0.00,0.00,0.00,0000 0000 0000 A000 020008
2018-09-29 07:14:45,0.00,0.00,0.00,26.04,30.30,32.40,-0.14,-3.50,1027.85,2013.78,3716.03,3034.38,3486.00,0.00,0.00,0.00,0000 0000 0000 A000 020008
2018-09-29 07:19:47,0.00,0.00,0.00,26.05,30.32,32.41,-0.14,-3.50,1027.85,2013.49,3716.00,3034.08,3486.00,0.00,0.00,0.00,0000 0000 0000 A000 020008
2018-09-29 07:24:48,0.00,0.00,0.00,26.05,30.33,32.42,-0.14,-3.50,1027.86,2013.60,3716.02,3034.15,3486.00,0.00,0.00,0.00,0000 0000 0000 A000 020008
2018-09-29 07:29:49,0.00,0.00,0.00,26.06,30.35,32.43,-0.14,-3.50,1027.88,2013.18,3716.00,3034.04,3485.94,0.00,0.00,0.00,0000 0000 0000 A000 020008
2018-09-29 07:34:51,0.00,0.00,0.00,26.07,30.36,32.46,-0.14,-3.50,1027.87,2013.06,3715.99,3034.01,3485.81,0.00,0.00,0.00,0000 0000 0000 A000 020008
2018-09-29 07:39:52,0.00,0.00,0.00,26.08,30.37,32.48,-0.14,-3.50,1027.87,2013.02,3715.97,3034.00,3485.60,0.00,0.00,0.00,0000 0000 0000 A000 020008
2018-09-29 07:44:53,0.00,0.00,0.00,26.10,30.38,32.49,-0.14,-3.50,1027.86,2013.01,3715.78,3034.00,3485.11,0.00,0.00,0.00,0000 0000 0000 A000 020008
2018-09-29 07:49:54,0.00,0.00,0.00,26.10,30.40,32.49,-0.15,-3.50,1027.85,2013.00,3715.37,3033.97,3485.01,0.00,0.00,0.00,0000 0000 0000 A000 020008
2018-09-29 07:54:55,0.00,0.00,0.00,26.12,30.41,32.49,-0.14,-3.50,1027.86,2013.00,3715.12,3033.95,3485.00,0.00,0.00,0.00,0000 0000 0000 A000 020008
2018-09-29 07:59:56,0.00,0.00,0.00,26.12,30.42,32.50,-0.15,-3.50,1027.86,2013.00,3715.07,3033.91,3485.00,0.00,0.00,0.00,0000 0000 0000 A000 020008
2018-09-29 08:04:58,0.00,0.00,0.00,26.14,30.43,32.54,-0.14,-3.50,1027.87,2013.00,3715.02,3033.72,3485.00,0.00,0.00,0.00,0000 0000 0000 A000 020008
2018-09-29 08:09:59,0.00,0.00,0.00,26.15,30.45,32.55,-0.14,-3.50,1027.87,2013.00,3715.01,3033.52,3485.00,0.00,0.00,0.00,0000 0000 0000 A000 020008
2018-09-29 08:15:00,0.00,0.00,0.00,26.16,30.46,32.58,-0.15,-3.51,1027.92,2013.00,3715.00,3033.21,3484.99,0.00,0.00,0.00,0000 0000 0000 A000 020008
2018-09-29 08:20:01,0.00,0.00,0.00,26.17,30.47,32.59,-0.14,-3.50,1027.99,2013.00,3715.00,3033.09,3484.95,0.00,0.00,0.00,0000 0000 0000 A000 020008
2018-09-29 08:25:02,0.00,0.00,0.00,26.17,30.48,32.55,-0.14,-3.50,1028.09,2012.98,3715.00,3033.02,3484.87,0.00,0.00,0.00,0000 0000 0000 A000 020008
2018-09-29 08:30:03,0.00,0.00,0.00,26.19,30.50,32.58,-0.14,-3.52,1028.09,2012.99,3715.00,3033.01,3484.86,0.00,0.00,0.00,0000 0000 0000 A000 020008
2018-09-29 08:35:04,0.00,0.00,0.00,26.20,30.50,32.61,-0.14,-3.52,1027.99,2012.98,3715.00,3033.03,3484.89,0.00,0.00,0.00,0000 0000 0000 A000 020008
2018-09-29 08:40:06,0.00,0.00,0.00,26.20,30.52,32.58,-0.14,-3.50,1028.02,2012.97,3714.98,3033.00,3484.42,0.00,0.00,0.00,0000 0000 0000 A000 020008
2018-09-29 08:45:07,0.00,0.00,0.00,26.21,30.52,32.60,-0.14,-3.57,1027.91,2012.93,3714.89,3033.00,3484.08,0.00,0.00,0.00,0000 0000 0000 A000 020008
2018-09-29 08:50:08,0.00,0.00,0.00,26.22,30.55,32.65,-0.14,-3.57,1027.90,2012.77,3714.58,3033.00,3484.01,0.00,0.00,0.00,0000 0000 0000 A000 020008
2018-09-29 08:55:09,0.00,0.00,0.00,26.22,30.55,32.60,-0.15,-3.56,1027.93,2012.64,3714.38,3032.99,3484.00,0.00,0.00,0.00,0000 0000 0000 A000 020008
2018-09-29 09:00:10,0.00,0.00,0.00,26.23,30.57,32.63,-0.15,-3.52,1027.89,2012.47,3714.14,3032.98,3484.00,0.00,0.00,0.00,0000 0000 0000 A000 020008
2018-09-29 09:05:11,0.00,0.00,0.00,26.24,30.57,32.64,-0.15,-3.56,1027.87,2012.40,3714.09,3032.98,3484.00,0.00,0.00,0.00,0000 0000 0000 A000 020008
2018-09-29 09:10:13,0.00,0.00,0.00,26.25,30.59,32.61,-0.14,-3.59,1027.89,2012.21,3714.05,3032.94,3484.00,0.00,0.00,0.00,0000 0000 0000 A000 020008
2018-09-29 09:15:14,0.00,0.00,0.00,26.25,30.60,32.67,-0.15,-3.57,1027.93,2012.12,3714.03,3032.91,3484.00,0.00,0.00,0.00,0000 0000 0000 A000 020008
2018-09-29 09:20:15,0.00,0.00,0.00,26.25,30.60,32.68,-0.15,-3.60,1027.91,2012.08,3714.01,3032.74,3483.99,0.00,0.00,0.00,0000 0000 0000 A000 020008
2018-09-29 09:25:16,0.00,0.00,0.00,26.27,30.62,32.69,-0.14,-3.62,1027.91,2012.06,3714.00,3032.55,3483.96,0.00,0.00,0.00,0000 0000 0000 A000 020008
2018-09-29 09:30:17,0.00,0.00,0.00,26.27,30.62,32.67,-0.14,-3.63,1027.99,2012.03,3714.00,3032.15,3483.91,0.00,0.00,0.00,0000 0000 0000 A000 020008
2018-09-29 09:35:19,0.00,0.00,0.00,26.27,30.64,32.67,-0.14,-3.66,1028.20,2012.00,3713.98,3032.02,3483.49,0.00,0.00,0.00,0000 0000 0000 A000 020008
2018-09-29 09:40:20,0.00,0.00,0.00,26.27,30.65,32.67,-0.15,-3.67,1028.29,2012.00,3713.95,3032.00,3483.09,0.00,0.00,0.00,0000 0000 0000 A000 020008
2018-09-29 09:45:21,0.00,0.00,0.00,26.29,30.66,32.74,-0.15,-3.64,1028.33,2012.00,3713.87,3032.00,3483.01,0.00,0.00,0.00,0000 0000 0000 A000 020008
2018-09-29 09:50:22,0.00,0.00,0.00,26.30,30.67,32.72,-0.14,-3.65,1028.33,2012.00,3713.52,3032.00,3483.00,0.00,0.00,0.00,0000 0000 0000 A000 020008
2018-09-29 09:55:23,0.00,0.00,0.00,26.30,30.67,32.71,-0.14,-3.67,1028.33,2012.00,3713.49,3032.00,3483.01,0.00,0.00,0.00,0000 0000 0000 A000 020008
2018-09-29 10:00:25,0.00,0.00,0.00,26.30,30.69,32.74,-0.14,-3.69,1028.33,2012.00,3713.32,3032.00,3483.00,0.00,0.00,0.00,0000 0000 0000 A000 020008
2018-09-29 10:05:26,0.00,0.00,0.00,26.31,30.70,32.74,-0.14,-3.67,1028.34,2011.99,3713.10,3031.99,3483.00,0.00,0.00,0.00,0000 0000 0000 A000 020008
2018-09-29 10:10:27,0.00,0.00,0.00,26.32,30.70,32.73,-0.13,-3.66,1028.35,2011.98,3713.02,3031.97,3482.98,0.00,0.00,0.00,0000 0000 0000 A000 020008
2018-09-29 10:15:28,0.00,0.00,0.00,26.32,30.71,32.77,-0.14,-3.69,1028.35,2011.99,3713.01,3031.94,3482.99,0.00,0.00,0.00,0000 0000 0000 A000 020008
2018-09-29 10:20:29,0.00,0.00,0.00,26.32,30.72,32.75,-0.14,-3.70,1028.34,2011.97,3713.00,3031.88,3482.95,0.00,0.00,0.00,0000 0000 0000 A000 020008
2018-09-29 10:25:31,0.00,0.00,0.00,26.33,30.72,32.79,-0.15,-3.73,1028.35,2011.96,3713.00,3031.91,3482.96,0.00,0.00,0.00,0000 0000 0000 A000 020008
2018-09-29 10:30:32,0.00,0.00,0.00,26.34,30.74,32.84,-0.14,-3.74,1028.34,2011.98,3713.00,3031.91,3482.96,0.00,0.00,0.00,0000 0000 0000 A000 020008
2018-09-29 10:35:33,0.00,0.00,0.00,26.35,30.75,32.80,-0.15,-3.73,1028.35,2011.97,3713.00,3031.72,3482.82,0.00,0.00,0.00,0000 0000 0000 A000 020008
2018-09-29 10:40:34,0.00,0.00,0.00,26.35,30.75,32.83,-0.14,-3.74,1028.35,2011.87,3712.99,3031.23,3482.34,0.00,0.00,0.00,0000 0000 0000 A000 020008
2018-09-29 10:45:35,0.00,0.00,0.00,26.35,30.76,32.78,-0.15,-3.73,1028.42,2011.80,3712.99,3031.12,3482.17,0.00,0.00,0.00,0000 0000 0000 A000 020008
2018-09-29 10:50:36,0.00,0.00,0.00,26.35,30.77,32.83,-0.14,-3.75,1028.58,2011.77,3712.99,3031.14,3482.30,0.00,0.00,0.00,0000 0000 0000 A000 020008
2018-09-29 10:55:37,0.00,0.00,0.00,26.36,30.77,32.84,-0.14,-3.74,1028.72,2011.52,3712.96,3031.03,3482.04,0.00,0.00,0.00,0000 0000 0000 A000 020008
2018-09-29 11:00:38,0.00,0.00,0.00,26.37,30.78,32.85,-0.15,-3.73,1028.79,2011.34,3712.89,3031.01,3482.01,0.00,0.00,0.00,0000 0000 0000 A000 020008
2018-09-29 11:05:39,0.00,0.00,0.00,26.37,30.80,32.85,-0.15,-3.75,1028.81,2011.32,3712.81,3031.00,3482.00,0.00,0.00,0.00,0000 0000 0000 A000 020008
2018-09-29 11:10:40,0.00,0.00,0.00,26.37,30.80,32.84,-0.15,-3.75,1028.82,2011.23,3712.83,3031.01,3482.00,0.00,0.00,0.00,0000 0000 0000 A000 020008
2018-09-29 11:15:41,0.00,0.00,0.00,26.35,30.80,32.80,-0.15,-3.74,1028.82,2011.20,3712.82,3031.00,3482.01,0.00,0.00,0.00,0000 0000 0000 A000 020008
2018-09-29 11:20:42,0.00,0.00,0.00,26.35,30.82,32.78,-0.15,-3.74,1028.82,2011.15,3712.71,3031.00,3482.00,0.00,0.00,0.00,0000 0000 0000 A000 020008
2018-09-29 11:25:44,0.00,0.00,0.00,26.37,30.82,32.81,-0.14,-3.73,1028.82,2011.09,3712.33,3031.00,3482.00,0.00,0.00,0.00,0000 0000 0000 A000 020008
2018-09-29 11:30:45,0.00,0.00,0.00,26.37,30.82,32.83,-0.15,-3.75,1028.82,2011.06,3712.29,3031.00,3481.99,0.00,0.00,0.00,0000 0000 0000 A000 020008
2018-09-29 11:35:46,0.00,0.00,0.00,26.37,30.82,32.81,-0.15,-3.75,1028.82,2011.06,3712.17,3031.00,3481.99,0.00,0.00,0.00,0000 0000 0000 A000 020008
2018-09-29 11:40:47,0.00,0.00,0.00,26.37,30.84,32.84,-0.14,-3.75,1028.82,2011.03,3712.08,3031.00,3481.99,0.00,0.00,0.00,0000 0000 0000 A000 020008
2018-09-29 11:45:49,0.00,0.00,0.00,26.37,30.85,32.87,-0.15,-3.75,1028.82,2011.02,3712.01,3030.98,3481.98,0.00,0.00,0.00,0000 0000 0000 A000 020008
2018-09-29 11:50:50,0.00,0.00,0.00,26.37,30.85,32.86,-0.14,-3.75,1028.83,2011.02,3712.02,3030.99,3481.98,0.00,0.00,0.00,0000 0000 0000 A000 020008
2018-09-29 11:55:51,0.00,0.00,0.00,26.37,30.85,32.89,-0.14,-3.75,1028.83,2011.01,3712.01,3030.97,3481.97,0.00,0.00,0.00,0000 0000 0000 A000 020008
2018-09-29 12:00:53,0.00,0.00,0.00,26.37,30.85,32.82,-0.15,-3.75,1028.83,2011.01,3712.01,3030.95,3481.97,0.00,0.00,0.00,0000 0000 0000 A000 020008
2018-09-29 12:05:54,0.00,0.00,0.00,26.37,30.86,32.84,-0.15,-3.75,1028.83,2011.00,3712.00,3030.91,3481.92,0.00,0.00,0.00,0000 0000 0000 A000 020008
2018-09-29 12:10:55,0.00,0.00,0.00,26.37,30.87,32.81,-0.15,-3.74,1028.83,2011.00,3712.00,3030.86,3481.74,0.00,0.00,0.00,0000 0000 0000 A000 020008
2018-09-29 12:15:56,0.00,0.00,0.00,26.37,30.87,32.84,-0.15,-3.75,1028.83,2011.00,3712.00,3030.85,3481.70,0.00,0.00,0.00,0000 0000 0000 A000 020008
2018-09-29 12:20:57,0.00,0.00,0.00,26.37,30.87,32.81,-0.15,-3.74,1028.83,2011.00,3712.00,3030.84,3481.66,0.00,0.00,0.00,0000 0000 0000 A000 020008
2018-09-29 12:25:59,0.00,0.00,0.00,26.37,30.87,32.81,-0.15,-3.75,1028.83,2011.00,3712.00,3030.85,3481.64,0.00,0.00,0.00,0000 0000 0000 A000 020008
2018-09-29 12:31:00,0.00,0.00,0.00,26.37,30.88,32.81,-0.14,-3.75,1028.83,2011.00,3712.00,3030.75,3481.49,0.00,0.00,0.00,0000 0000 0000 A000 020008
2018-09-29 12:36:01,0.00,0.00,0.00,26.37,30.89,32.84,-0.14,-3.75,1028.83,2011.00,3712.00,3030.69,3481.38,0.00,0.00,0.00,0000 0000 0000 A000 020008
2018-09-29 12:41:02,0.00,0.00,0.00,26.37,30.90,32.89,-0.14,-3.75,1028.82,2011.00,3712.00,3030.53,3481.27,0.00,0.00,0.00,0000 0000 0000 A000 020008
2018-09-29 12:46:03,0.00,0.00,0.00,26.37,30.90,32.88,-0.15,-3.75,1028.82,2011.00,3712.00,3030.50,3481.21,0.00,0.00,0.00,0000 0000 0000 A000 020008
2018-09-29 12:51:04,0.00,0.00,0.00,26.37,30.90,32.93,-0.15,-3.75,1028.82,2011.00,3711.99,3030.44,3481.17,0.00,0.00,0.00,0000 0000 0000 A000 020008
2018-09-29 12:56:06,0.00,0.00,0.00,26.37,30.90,32.87,-0.15,-3.75,1028.81,2011.00,3711.99,3030.23,3481.09,0.00,0.00,0.00,0000 0000 0000 A000 020008
2018-09-29 13:01:07,0.00,0.00,0.00,26.37,30.90,32.86,-0.15,-3.75,1028.82,2011.00,3711.99,3030.31,3481.13,0.00,0.00,0.00,0000 0000 0000 A000 020008
2018-09-29 13:06:08,0.00,0.00,0.00,26.37,30.90,32.88,-0.15,-3.75,1028.80,2011.00,3711.99,3030.60,3481.26,0.00,0.00,0.00,0000 0000 0000 A000 020008
2018-09-29 13:11:09,0.00,0.00,0.00,26.37,30.90,32.87,-0.15,-3.75,1028.78,2011.00,3711.99,3030.35,3481.12,0.00,0.00,0.00,0000 0000 0000 A000 020008
2018-09-29 13:16:10,0.00,0.00,0.00,26.37,30.90,32.81,-0.15,-3.75,1028.79,2011.00,3711.99,3030.39,3481.12,0.00,0.00,0.00,0000 0000 0000 A000 020008
2018-09-29 13:21:12,0.00,0.00,0.00,26.37,30.90,32.84,-0.15,-3.75,1028.78,2011.00,3711.99,3030.45,3481.10,0.00,0.00,0.00,0000 0000 0000 A000 020008